www.pogodaiklimat.ru

Погода и климат >> Архив погоды >> Швеция >> Vaderoarna


ПОГОДА в Vaderoarna

  • Прогноз погоды в Vaderoarna
  • Монитор погоды в Vaderoarna
  • Климат города

АРХИВ ПОГОДЫ в Vaderoarna

Время (UTC), дата Ветер
(напр.,м/с)
 
Видим.   Явления Облачность Т
(С)
Тd
(С)
f
(%)
Тe
(С)
Тes
(С)
Комфортность P
(гПа)
Po
(гПа)
Тmin
(С)
Tmax
(С)
R
(мм)
R24
(мм)
S
(см)
07 11.08 ЮЗ 4
{7}
н/о н/о +16.0 +11.1 73 +15 +15 1013.8 1011.0
08 11.08 Ю 3
{6}
н/о н/о +14.9 +12.5 86 +14 +14 1013.8 1011.0
09 11.08 Ю 3
{6}
н/о н/о +15.5 +12.8 84 +15 +15 1013.7 1010.9
10 11.08 ЮЗ 2
{4}
н/о н/о +15.2 +11.5 79 +15 +15 1013.5 1010.7
11 11.08 В 6
{8}
н/о н/о +14.4 +12.0 85 +12 +12 1012.6 1009.8
12 11.08 В 5
{8}
н/о н/о +14.5 +11.5 82 +13 +13 1012.0 1009.2
13 11.08 В 3
{7}
н/о н/о +15.0 +11.9 82 +14 +14 1011.6 1008.8
14 11.08 СВ 2
{7}
н/о н/о +15.3 +11.6 79 +15 +15 1011.0 1008.2
15 11.08 С 2
{4}
н/о н/о +15.3 +11.3 77 +15 +15 1010.4 1007.7
16 11.08 СЗ 4
{5}
н/о н/о +15.6 +11.7 78 +15 +15 1009.9 1007.1
17 11.08 СЗ 5
{7}
н/о н/о +15.6 +10.8 73 +14 +14 1009.8 1007.0
18 11.08 С 6
{8}
н/о н/о +15.7 +10.9 73 +14 +14 1009.4 1006.6 +14.3 +16.3
19 11.08 С 6
{10}
н/о н/о +15.0 +12.3 84 +13 +13 1009.5 1006.7
20 11.08 С 4
{10}
н/о н/о +14.7 +11.5 81 +13 +13 1009.5 1006.7
21 11.08 С 4
{10}
н/о н/о +14.9 +9.8 72 +14 +14 1009.5 1006.7
22 11.08 СЗ 4
{10}
н/о н/о +15.3 +11.6 79 +14 +14 1009.3 1006.5
23 11.08 С 4
{7}
н/о н/о +15.5 +9.8 69 +15 +15 1009.0 1006.2
00 12.08 СВ 2
{6}
н/о н/о +14.5 +11.5 82 +14 +14 1009.0 1006.2
01 12.08 СВ 2
{5}
н/о н/о +14.1 +12.2 88 +14 +14 1008.7 1005.9
02 12.08 ЮЗ 2
{4}
н/о н/о +14.5 +11.9 84 +14 +14 1008.5 1005.7
03 12.08 ЮЗ 1
{3}
н/о н/о +14.9 +12.4 85 +15 +15 1008.2 1005.4
04 12.08 ЮЗ 5
{7}
н/о н/о +15.5 +9.9 69 +14 +14 1008.2 1005.4
05 12.08 С 4
{7}
н/о н/о +15.3 +11.5 78 +14 +14 1008.2 1005.4
06 12.08 СЗ 3
{6}
н/о н/о +15.2 +11.4 78 +15 +15 1008.5 1005.7 +14.1 +15.8
07 12.08 С 3
{7}
н/о н/о +15.3 +11.7 79 +15 +15 1008.9 1006.1
08 12.08 СЗ 5
{8}
н/о н/о +15.5 +10.1 70 +14 +14 1009.1 1006.3
09 12.08 СЗ 7
{9}
н/о н/о +15.7 +9.7 67 +14 +14 1009.4 1006.6
10 12.08 СЗ 8
{10}
н/о н/о +15.9 +9.6 66 +14 +14 1009.6 1006.8
11 12.08 С 8
{12}
н/о н/о +15.5 +9.4 67 +14 +14 1010.0 1007.2
12 12.08 С 8
{12}
н/о н/о +15.5 +7.6 59 +14 +14 1010.5 1007.7
13 12.08 С 6
{11}
н/о н/о +15.9 +7.1 56 +15 +15 1010.7 1007.9
14 12.08 СЗ 5
{11}
н/о н/о +16.3 +6.6 53 +15 +15 1010.8 1008.0
15 12.08 СЗ 3
{9}
н/о н/о +16.8 +7.3 53 +17 +17 1010.9 1008.1
16 12.08 З 4
{7}
н/о н/о +17.0 +7.7 54 +17 +17 1010.7 1007.9
17 12.08 З 4
{7}
н/о н/о +16.8 +7.4 54 +16 +16 1010.4 1007.7
18 12.08 З 5
{7}
н/о н/о +16.5 +7.7 56 +16 +16 1010.7 1007.9 +15.0 +17.3
19 12.08 З 5
{7}
н/о н/о +15.9 +8.1 60 +15 +15 1010.6 1007.8
20 12.08 З 3
{7}
н/о н/о +15.8 +8.2 61 +15 +15 1010.7 1007.9
21 12.08 СЗ 3
{5}
н/о н/о +15.8 +7.8 59 +15 +15 1010.7 1007.9
22 12.08 С 1
{4}
н/о н/о +15.7 +7.6 59 +16 +16 1010.7 1008.0
23 12.08 СВ 2
{3}
н/о н/о +15.6 +7.7 59 +16 +16 1010.7 1007.9
00 13.08 В 3
{4}
н/о н/о +15.4 +9.7 69 +15 +15 1010.5 1007.7
01 13.08 В 3
{4}
н/о н/о +15.0 +9.4 69 +14 +14 1010.6 1007.8
02 13.08 В 4
{5}
н/о н/о +14.7 +9.5 71 +14 +14 1010.7 1007.9
03 13.08 В 3
{5}
н/о н/о +14.5 +9.1 70 +14 +14 1010.6 1007.8
04 13.08 В 3
{4}
н/о н/о +14.3 +9.9 75 +13 +13 1010.5 1007.7
05 13.08 В 2
{4}
н/о н/о +14.7 +9.6 71 +14 +14 1010.5 1007.7
06 13.08 В 4
{5}
н/о н/о +14.4 +8.7 69 +13 +13 1010.6 1007.8 +14.1 +16.5
07 13.08 В 4
{5}
н/о н/о +15.5 +9.1 66 +15 +15 1010.7 1007.9
08 13.08 В 4
{5}
н/о н/о +16.3 +9.0 62 +16 +16 1010.8 1008.0
09 13.08 СВ 2
{5}
н/о н/о +17.6 +5.4 45 +18 +18 1010.8 1008.1
10 13.08 С 4
{6}
н/о н/о +17.3 +7.9 54 +17 +17 1010.5 1007.8
11 13.08 СЗ 5
{7}
н/о н/о +17.6 +9.5 59 +17 +17 1010.0 1007.3
12 13.08 СЗ 6
{7}
н/о н/о +17.5 +10.1 62 +17 +17 1009.8 1007.1
13 13.08 СЗ 6
{8}
н/о н/о +17.5 +9.5 59 +17 +17 1009.4 1006.7
14 13.08 СЗ 6 н/о н/о +18.0 +9.9 59 +17 +17 1009.3 1006.5
15 13.08 СЗ 6
{8}
н/о н/о +18.2 +9.4 56 +18 +18 1008.9 1006.2
16 13.08 С 6
{7}
н/о н/о +18.3 +9.7 57 +18 +18 1008.5 1005.7
17 13.08 С 5
{7}
н/о н/о +18.6 +11.5 63 +19 +19 1008.0 1005.3
18 13.08 С 4
{7}
н/о н/о +18.6 +11.2 62 +19 +19 1007.9 1005.1 +14.3 +18.8
19 13.08 В 5
{7}
н/о н/о +19.4 +8.4 49 +20 +20 1008.2 1005.4
20 13.08 В 6
{8}
н/о н/о +18.7 +8.5 51 +19 +19 1008.0 1005.3
21 13.08 В 6
{8}
н/о н/о +18.1 +7.8 51 +18 +18 1007.9 1005.2
22 13.08 В 7
{9}
н/о н/о +17.9 +8.9 56 +17 +17 1007.9 1005.1
23 13.08 В 7
{9}
н/о н/о +17.7 +8.3 54 +17 +17 1007.9 1005.1
00 14.08 В 8
{9}
н/о н/о +17.4 +8.3 55 +16 +16 1007.7 1004.9
01 14.08 В 5
{9}
н/о н/о +16.9 +9.4 61 +16 +16 1007.6 1004.8
02 14.08 ЮВ 6
{8}
н/о н/о +16.3 +10.3 68 +15 +15 1007.5 1004.7
03 14.08 В 4
{7}
н/о н/о +16.5 +11.1 70 +16 +16 1007.1 1004.4
04 14.08 В 7
{8}
н/о н/о +16.2 +12.4 78 +15 +15 1007.3 1004.5
05 14.08 В 7
{9}
н/о н/о +14.9 +13.2 90 +13 +13 1007.3 1004.6
06 14.08 В 5
{9}
н/о н/о +15.3 +12.7 84 +14 +14 1007.1 1004.3 +14.7 +19.6
07 14.08 В 7
{10}
н/о н/о +14.8 +13.2 90 +13 +13 1007.1 1004.3
08 14.08 В 6
{10}
н/о н/о +14.9 +13.5 91 +13 +13 1007.2 1004.4
09 14.08 В 5
{9}
н/о н/о +15.3 +14.2 93 +14 +14 1007.2 1004.5
10 14.08 В 6
{8}
н/о н/о +15.9 +14.7 93 +14 +14 1007.3 1004.5
11 14.08 В 5
{7}
н/о н/о +16.1 +14.3 89 +15 +15 1007.4 1004.6
12 14.08 В 4
{7}
н/о н/о +16.3 +14.2 87 +16 +16 1007.5 1004.8
13 14.08 В 3
{6}
н/о н/о +16.4 +14.5 89 +16 +16 1007.7 1005.0
14 14.08 СВ 4
{5}
н/о н/о +15.9 +14.9 94 +15 +15 1007.8 1005.0
15 14.08 СВ 4
{5}
н/о н/о +15.8 +14.8 94 +15 +15 1007.6 1004.8
16 14.08 СВ 4
{5}
н/о н/о +15.8 +14.8 94 +15 +15 1007.6 1004.8
17 14.08 СВ 3
{5}
н/о н/о +15.9 +15.0 94 +15 +15 1007.7 1005.0
18 14.08 С 4
{5}
н/о н/о +15.6 +15.0 96 +15 +15 1007.9 1005.1 +14.6 +16.6
19 14.08 СВ 4
{6}
н/о н/о +15.4 +14.9 97 +14 +14 1008.4 1005.6
20 14.08 СВ 4
{6}
н/о н/о +15.4 +14.7 96 +14 +14 1008.7 1005.9
21 14.08 СВ 4
{6}
н/о н/о +15.3 +14.9 97 +14 +14 1008.7 1005.9
22 14.08 В 2
{5}
н/о н/о +15.5 +14.8 96 +15 +15 1009.2 1006.4
23 14.08 С 1
{5}
н/о н/о +15.6 +14.9 96 +16 +16 1009.5 1006.7
00 15.08 С 4
{5}
н/о н/о +15.7 +14.2 91 +15 +15 1009.5 1006.7
01 15.08 С 4
{6}
н/о н/о +15.2 +13.8 91 +14 +14 1009.6 1006.8
02 15.08 СВ 4
{6}
н/о н/о +15.0 +13.8 93 +14 +14 1009.6 1006.8
03 15.08 В 3
{6}
н/о н/о +15.0 +14.2 95 +14 +14 1009.9 1007.1
04 15.08 ЮВ 4
{5}
н/о н/о +14.5 +13.4 93 +13 +13 1010.2 1007.4
05 15.08 Ю 4
{5}
н/о н/о +14.8 +13.8 94 +14 +14 1010.6 1007.8
06 15.08 ЮВ 4
{5}
н/о н/о +15.7 +14.0 90 +15 +15 1010.7 1007.9 +14.4 +15.8
07 15.08 ЮВ 5
{6}
н/о н/о +16.0 +13.9 87 +15 +15 1010.9 1008.1
08 15.08 Ю 5
{7}
н/о н/о +17.0 +14.0 82 +16 +16 1011.2 1008.4
09 15.08 ЮЗ 5
{7}
н/о н/о +17.4 +13.0 75 +17 +17 1011.6 1008.9
10 15.08 ЮЗ 5
{7}
н/о н/о +17.4 +14.1 81 +17 +17 1012.2 1009.4
11 15.08 ЮЗ 6
{8}
н/о н/о +17.5 +15.0 85 +17 +17 1012.3 1009.5
12 15.08 ЮЗ 7
{8}
н/о н/о +17.7 +15.4 86 +17 +17 1012.6 1009.8
13 15.08 ЮЗ 5
{8}
н/о н/о +18.2 +15.2 83 +18 +18 1012.7 1009.9
14 15.08 ЮЗ 7
{9}
н/о н/о +17.7 +14.8 83 +17 +17 1013.0 1010.2
15 15.08 ЮЗ 6
{9}
н/о н/о +18.0 +15.6 86 +17 +17 1013.1 1010.3
16 15.08 ЮЗ 7
{9}
н/о н/о +18.1 +15.2 83 +18 +18 1013.0 1010.3
17 15.08 ЮЗ 7
{9}
н/о н/о +17.9 +15.6 86 +17 +17 1013.0 1010.2
18 15.08 ЮЗ 7
{10}
н/о н/о +17.8 +15.7 88 +17 +17 1013.0 1010.3 +15.5 +18.4
19 15.08 Ю 7
{10}
н/о н/о +17.7 +16.1 90 +17 +17 1013.2 1010.4
20 15.08 Ю 7
{10}
н/о н/о +17.8 +16.1 90 +17 +17 1013.1 1010.4
21 15.08 ЮЗ 9
{10}
н/о н/о +17.7 +16.8 94 +17 +17 1013.5 1010.7
22 15.08 ЮЗ 9
{11}
н/о н/о +18.0 +16.4 90 +17 +17 1013.1 1010.3
23 15.08 Ю 9
{11}
н/о н/о +18.0 +17.3 96 +17 +17 1013.0 1010.2
00 16.08 Ю 9
{12}
н/о н/о +18.0 +16.5 91 +17 +17 1012.7 1009.9
01 16.08 Ю 9
{12}
н/о н/о +18.2 +16.5 90 +18 +18 1012.5 1009.7
02 16.08 ЮЗ 10
{13}
н/о н/о +18.2 +16.5 90 +17 +17 1012.3 1009.5
03 16.08 ЮЗ 9
{13}
н/о н/о +18.2 +16.5 90 +18 +18 1012.3 1009.5
04 16.08 Ю 9
{12}
н/о н/о +18.2 +16.3 89 +17 +17 1012.1 1009.4
05 16.08 Ю 9
{11}
н/о н/о +18.4 +16.5 89 +18 +18 1011.9 1009.1
06 16.08 Ю 9
{12}
н/о н/о +18.3 +16.3 88 +18 +18 1011.8 1009.1 +17.7 +18.4
07 16.08 Ю 10
{13}
н/о н/о +18.4 +16.0 86 +18 +18 1011.5 1008.8
08 16.08 Ю 11
{15}
н/о н/о +17.9 +15.3 85 +17 +17 1011.6 1008.8
09 16.08 Ю 12
{15}
н/о н/о +18.8 +15.5 81 +19 +19 1011.4 1008.6
10 16.08 Ю 13
{15}
н/о н/о +18.7 +16.2 85 +18 +18 1011.1 1008.3
11 16.08 Ю 12
{15}
н/о н/о +19.1 +16.7 86 +20 +20 1011.0 1008.3
12 16.08 Ю 12
{14}
н/о н/о +19.0 +16.0 83 +19 +19 1011.0 1008.2
13 16.08 Ю 12
{15}
н/о н/о +19.0 +16.2 84 +19 +19 1010.8 1008.0
14 16.08 Ю 12
{17}
н/о н/о +19.2 +16.2 83 +20 +20 1010.5 1007.8
15 16.08 Ю 11
{17}
н/о н/о +19.2 +17.2 88 +20 +20 1010.0 1007.3
16 16.08 Ю 13
{16}
н/о н/о +19.2 +16.9 87 +20 +20 1009.5 1006.8
17 16.08 Ю 12
{16}
н/о н/о +19.3 +16.7 85 +20 +20 1009.2 1006.4
18 16.08 Ю 12
{16}
н/о н/о +19.3 +16.8 85 +20 +20 1008.9 1006.1 +17.8 +19.4
19 16.08 Ю 11
{14}
н/о н/о +19.3 +16.7 85 +20 +20 1008.8 1006.1
20 16.08 ЮЗ 12
{15}
н/о н/о +19.0 +15.8 82 +19 +19 1009.1 1006.4
21 16.08 Ю 11
{16}
н/о н/о +19.0 +16.3 84 +19 +19 1009.1 1006.3
22 16.08 ЮЗ 12
{18}
н/о н/о +16.9 +15.6 92 +15 +15 1009.9 1007.1
23 16.08 ЮЗ 11
{18}
н/о н/о +17.2 +15.3 89 +16 +16 1010.4 1007.6
00 17.08 ЮЗ 11
{15}
н/о н/о +17.3 +14.1 81 +16 +16 1010.2 1007.4
01 17.08 ЮЗ 9
{14}
н/о н/о +17.6 +14.9 84 +16 +16 1010.5 1007.7
02 17.08 Ю 10
{14}
н/о н/о +17.5 +15.9 90 +16 +16 1010.5 1007.7
03 17.08 ЮЗ 9
{14}
н/о н/о +16.5 +13.7 84 +15 +15 1010.4 1007.6
04 17.08 ЮЗ 10
{14}
н/о н/о +16.8 +14.4 86 +15 +15 1010.2 1007.5
05 17.08 ЮЗ 10
{13}
н/о н/о +17.2 +14.7 85 +16 +16 1010.8 1008.0
06 17.08 ЮЗ 10
{14}
н/о н/о +17.2 +14.2 83 +16 +16 1011.1 1008.3 +16.3 +19.4
07 17.08 ЮЗ 8
{14}
н/о н/о +16.5 +12.9 79 +15 +15 1011.5 1008.7
08 17.08 ЮЗ 9
{14}
н/о н/о +17.0 +12.9 77 +16 +16 1012.0 1009.3
09 17.08 ЮЗ 9
{11}
н/о н/о +17.2 +11.8 71 +16 +16 1012.7 1010.0
10 17.08 ЮЗ 9
{12}
н/о н/о +17.2 +11.9 71 +16 +16 1013.0 1010.2
11 17.08 ЮЗ 9
{12}
н/о н/о +17.2 +13.1 77 +16 +16 1013.3 1010.5
12 17.08 ЮЗ 10
{12}
н/о н/о +17.5 +12.8 74 +16 +16 1013.5 1010.7
13 17.08 ЮЗ 10
{13}
н/о н/о +18.0 +13.1 73 +17 +17 1013.4 1010.7
14 17.08 ЮЗ 11
{15}
н/о н/о +18.2 +13.9 76 +17 +17 1013.1 1010.4
15 17.08 ЮЗ 11 н/о н/о +18.1 +13.3 74 +17 +17 1013.1 1010.4
16 17.08 ЮЗ 11
{14}
н/о н/о +17.6 +12.7 73 +16 +16 1013.2 1010.4
17 17.08 ЮЗ 11
{14}
н/о н/о +17.4 +12.4 72 +16 +16 1013.0 1010.2
18 17.08 ЮЗ 12
{15}
н/о н/о +17.3 +11.3 68 +16 +16 1013.1 1010.3 +15.8 +18.4
19 17.08 ЮЗ 13
{16}
н/о н/о +17.0 +12.2 73 +15 +15 1013.2 1010.4
20 17.08 ЮЗ 12
{16}
н/о н/о +16.9 +11.9 72 +15 +15 1013.5 1010.7
21 17.08 ЮЗ 12
{15}
н/о н/о +16.8 +12.4 75 +15 +15 1013.7 1010.9
22 17.08 ЮЗ 12
{15}
н/о н/о +16.6 +12.6 77 +15 +15 1013.8 1011.0
23 17.08 ЮЗ 11
{14}
н/о н/о +16.6 +13.1 80 +15 +15 1014.4 1011.6
00 18.08 ЮЗ 10
{13}
н/о н/о +16.7 +13.0 79 +15 +15 1014.2 1011.4
01 18.08 ЮЗ 9
{13}
н/о н/о +16.7 +12.7 77 +15 +15 1014.2 1011.4
02 18.08 ЮЗ 10
{14}
н/о н/о +16.7 +12.9 78 +15 +15 1014.1 1011.3
03 18.08 ЮЗ 11
{14}
н/о н/о +16.7 +13.4 81 +15 +15 1013.8 1011.0
04 18.08 ЮЗ 11
{14}
н/о н/о +16.8 +12.4 75 +15 +15 1013.6 1010.8
05 18.08 ЮЗ 12
{14}
н/о н/о +16.6 +13.3 81 +15 +15 1013.6 1010.8

 

Местоположение метеостанции Vaderoarna (Швеция): широта 58.58 долгота 11.07 высота над уровнем моря 24 м.

В архиве по умолчанию представлена погода в Vaderoarna за последнюю неделю. Архивные данные за месяц целиком и за предыдущие месяцы, начиная с января 2011 года, Вы можете получить, выбрав интересующий диапазон дат из раскрывающегося списка и нажав кнопку "Ввод!".


*Определитесь, кто Вы:
робот инопланетянин человек

Внимание! Время в таблицах - всемирное. Для получения местного времени необходимо прибавить поправку, которая в Vaderoarna равна 1 ч.

Смотрите также архив погоды в соседних городах и на ближайших метеорологических станциях:

Погода в Hud (Швеция) (22 км)
Погода в Nordkoster (Швеция) (36 км)
Погода в Maseskar (Швеция) (56 км)
Погода в Ferder Fyr (Норвегия) (59 км)
Погода в Stromtangen Fyr (Норвегия) (65 км)
Погода в Kroppefjall-Granan (Швеция) (66 км)
Погода в Svenner Fyr (Норвегия) (69 км)
Погода в Torpabron (Швеция) (77 км)
Погода в Sarpsborg (Норвегия) (78 км)
Погода в Bergarud (Швеция) (78 км)

Пояснения к столбцам:

Ветер - указаны скорость ветра в м/с - средняя за 10 мин, порывы в срок и между сроками (в фигурных скобках) и направление, откуда дует ветер: С - северный, СВ - северо-восточный, В - восточный, ЮВ - юго-восточный, Ю - южный, ЮЗ - юго-западный, З - западный, СЗ - северо-западный.
Видимость - горизонтальная дальность видимости в метрах или километрах. При видимости от 1 до 10 км при отсутствии осадков обычно наблюдается дымка, при ухудшении видимости до 1 км и менее - туман. В сухую погоду видимость может ухудшаться дымом, пылью или мглою.
Явления - указаны атмосферные явления, наблюдавшиеся в срок или в последний час перед сроком; фигурными скобками обозначены явления, наблюдавшиеся между сроками (за 1-3 часа до срока); квадратными скобками обозначены град или гололедные отложения с указанием их диаметра в мм.
Облачность - указаны через наклонную черту общая и нижняя облачность в баллах и высота нижней границы облаков в метрах; квадратными скобками обозначены формы облаков: Ci - перистые, Cs - перисто-слоистые, Cc - перисто-кучевые, Ac - высококучевые, As - высокослоистые, Sc - слоисто-кучевые, Ns - слоисто-дождевые, Cu - кучевые, Cb - кучево-дождевые. Подробнее классификацию облаков см. в Атласе облаков (PDF).
T - Температура воздуха - температура, измеренная на высоте 2 м над землей.
Td - Температура точки росы - температура, при понижении до которой содержащийся в воздухе водяной пар достигнет насыщения.
f - Относительная влажность воздуха - влажноcть воздуха, измеренная на высоте 2 м над землей.
Te - Эффективная температура - температура, которую ощущает одетый по сезону человек в тени. Характеристика душности погоды. При расчете учитывается влияние влажности воздуха и скорости ветра на теплоощущения человека.
Tes - Эффективная температура на солнце - температура, которую ощущает человек, с поправкой на солнечный нагрев. Характеристика знойности погоды. Зависит от высоты солнца над горизонтом, облачности и скорости ветра. Ночью, в пасмурную погоду, а также при ветре 12 м/с и более поправка равна нулю.
P - Атмосферное давление - приведенное к уровню моря атмосферное давление.
Po - Атмосферное давление - измеренное на уровне метеостанции атмосферное давление.
Tmin - Минимальная температура - минимум температуры воздуха на высоте 2 м над землей.
Tmax - Максимальная температура - максимум температуры воздуха на высоте 2 м над землей.
R - Количество осадков - Количество выпавших осадков за период времени, мм. При наведении курсора мыши на число - период времени, за который выпало указанное количество осадков.
R24 - Количество осадков - Количество выпавших осадков за 24 часа, мм.
S - Снежный покров - Высота снежного покрова, см. При наведении курсора мыши на число - состояние снежного покрова и степень покрытия местности в баллах.